Regional Weather Roundup
Issued by NWS

Home | Current Version | Previous Version | Text Only | Print | Product List | Glossary Off
Versions: 1 2 3 4 5 6 7 8 9 10 11 12 13 14 15 16 17 18 19 20 21 22 23 24 25 26 27 28 29 30 31 32 33 34 35 36 37 38 39 40 41 42 43 44 45 46 47 48 49 50

000
ASUS43 KLMK 220702
RWRKY
KENTUCKY REGIONAL WEATHER ROUNDUP
NATIONAL WEATHER SERVICE LOUISVILLE KY
300 AM EDT MON SEP 22 2014

NOTE "FAIR" INDICATES FEW OR NO CLOUDS BELOW 12,000 FEET
WITH NO SIGNIFICANT WEATHER AND/OR OBSTRUCTIONS TO VISIBILITY.

KYZ001>023-026-027-061>063-070>075-220800-
WESTERN AND SOUTH CENTRAL KENTUCKY

CITY           SKY/WX    TMP DP  RH WIND       PRES   REMARKS
PADUCAH        CLEAR     61  51  70 N3        30.13R
HENDERSON      CLEAR     54  46  76 CALM      30.13R
OWENSBORO      CLEAR     58  51  77 N3        30.12R
HOPKINSVILLE   CLEAR     57  50  78 N6        30.11R
BOWLING GREEN  CLEAR     59  49  69 CALM      30.11R
GLASGOW        CLEAR     54  49  86 CALM      30.10R
$$

KYZ024-025-028>034-038-045-046-053-220800-
NORTH CENTRAL KENTUCKY

CITY           SKY/WX    TMP DP  RH WIND       PRES   REMARKS
LOUISVILLE/SDF CLEAR     58  50  75 N9        30.09R
LOUISVILLE/LOU CLEAR     58  50  75 N5        30.10R
FORT KNOX      CLEAR     54  50  87 NW2       30.09R
$$

KYZ035>037-039>044-047>052-055>060-089>105-220800-
NORTHEAST KENTUCKY

CITY           SKY/WX    TMP DP  RH WIND       PRES   REMARKS
LEXINGTON      CLEAR     55  47  74 CALM      30.09R
COVINGTON      CLEAR     53  47  79 NW7       30.08S
FRANKFORT      CLEAR     56  47  71 N6        30.08R
$$

KYZ054-064>069-076>088-106>120-220800-
SOUTHEAST KENTUCKY

CITY           SKY/WX    TMP DP  RH WIND       PRES   REMARKS
JACKSON        CLEAR     56  46  69 VRB7      30.05F
LONDON         CLEAR     58  48  69 CALM      30.08R
SOMERSET       CLEAR     55  46  71 N3        30.10S
MIDDLESBORO    MOCLDY    54  53  95 CALM      30.07S
MONTICELLO     SUNNY     56  51  83 CALM      30.11R
$$




USA.gov is the U.S. government's official web portal to all federal, state and local government web resources and services.